CAPE
0 0 0 0 0 0 0 0 0 0 0 0 0 0 0 0 0 0 0 0 0 0 0 0 0 0 0 0 0 0 0 0 0 0 0 0 0 0 0 0 0 0 0
0 0 0 0 0 0 0 0 0 0 0 0 0 0 0 0 0 0 0 0 0 0 0 0 0 0 0 0 0 0 0 0 0 0 0 0 0 0 0 0 0 0 0
0 0 0 0 0 0 0 0 0 0 0 0 0 0 0 0 0 0 0 0 0 0 0 0 0 0 0 0 0 0 0 0 0 0 0 0 0 0 0 0 0 0 0
0 0 0 0 0 0 0 0 0 0 0 0 0 0 0 0 0 0 0 0 0 0 0 0 0 0 0 0 0 0 0 0 0 0 1 2 3 4 7 4 1 3 3
0 0 0 0 0 0 0 0 0 0 0 0 0 0 0 0 0 0 0 0 0 0 0 0 0 0 0 0 1 1 0 0 1 0 0 2 2 1 0 3 2 0 0
0 0 0 0 0 0 0 0 0 0 0 0 0 0 0 0 0 0 0 0 0 1 0 0 0 0 0 0 0 0 0 0 0 0 0 0 1 0 0 0 0 0 0
0 0 0 0 0 0 0 0 0 0 0 0 0 0 0 0 0 0 1 0 0 0 0 0 0 0 0 0 0 0 0 0 0 0 0 0 1 0 0 0 0 0 0
0 0 0 0 0 0 0 0 0 0 0 0 0 0 0 0 1 1 0 0 0 0 0 0 0 0 0 0 0 0 0 0 0 5 1 0 0 0 1 0 0 0 0
0 0 0 0 0 0 0 0 0 0 0 0 0 0 0 0 0 0 0 0 0 0 0 0 0 0 0 0 0 0 0 0 0 0 0 1 0 0 0 0 0 0 0
0 0 0 0 0 0 0 0 0 0 0 0 0 0 0 0 0 0 0 0 0 0 0 0 0 0 0 0 0 0 0 0 0 0 0 0 0 0 0 0 0 0 0
0 0 0 0 0 0 0 0 0 0 0 0 0 0 0 0 0 0 0 0 0 0 0 0 0 0 0 1 1 0 0 0 0 0 0 0 0 0 0 0 0 0 0
0 0 0 0 0 0 0 0 0 0 0 0 0 0 0 0 0 0 0 0 0 0 0 0 0 0 1 0 0 0 0 0 0 0 0 0 0 0 0 0 0 0 1
0 0 0 0 0 0 0 0 0 0 0 0 0 0 0 0 0 0 0 0 0 0 0 0 0 1 0 0 0 0 0 0 0 0 0 0 0 0 0 0 0 0 0
0 0 0 0 0 0 0 0 0 0 0 0 0 0 0 0 0 0 0 0 0 0 0 1 0 0 0 0 0 0 0 0 0 0 0 0 0 0 0 0 0 0 0
0 0 0 0 0 0 0 0 0 0 0 0 0 0 0 0 0 0 0 0 0 0 1 0 0 0 0 0 0 0 0 0 0 0 0 0 0 0 0 0 0 0 0
0 0 0 0 0 0 0 0 1 0 0 0 0 0 0 0 0 0 0 0 0 0 0 0 0 0 0 0 0 0 0 0 0 0 0 0 0 0 0 0 0 0 0
0 0 0 0 0 0 0 0 0 0 0 0 0 0 0 0 0 0 0 0 0 0 0 0 0 0 0 0 0 0 0 0 0 0 0 0 0 0 0 0 0 0 0
0 0 0 0 0 0 0 0 0 0 0 0 0 0 0 0 0 0 0 0 0 0 0 0 0 0 0 0 0 0 0 0 0 0 0 0 0 0 0 0 0 0 0
0 0 0 0 0 0 0 0 0 0 0 0 0 0 0 0 0 0 0 0 0 0 0 0 0 0 0 0 0 0 0 0 0 0 0 0 0 0 0 0 0 0 0
0 0 0 0 0 0 0 0 0 0 0 0 0 0 0 0 0 0 0 0 0 0 0 0 0 0 0 0 0 0 0 0 0 0 0 0 0 0 0 0 0 0 0
0 0 0 0 0 0 0 0 0 0 0 0 0 0 0 0 0 0 0 0 0 0 0 0 0 0 0 0 0 0 0 0 0 0 0 0 0 0 0 0 0 0 0
0 0 0 0 0 0 0 0 0 0 0 0 0 0 0 0 0 0 0 0 0 0 0 0 0 0 0 0 0 0 0 0 0 0 0 0 0 0 0 0 0 0 0
0 0 0 0 0 0 0 0 0 0 0 0 0 0 0 0 0 0 0 0 0 0 0 0 0 0 0 0 0 0 0 0 0 0 0 0 0 0 0 0 0 0 0
0 0 0 0 0 0 0 0 0 0 0 0 0 0 0 0 0 0 0 0 0 0 0 0 0 0 0 0 0 0 0 0 0 0 0 0 0 0 0 0 0 0 0
0 0 0 0 0 0 0 0 0 0 0 0 0 0 0 0 0 0 0 0 0 0 0 0 0 0 0 0 0 0 0 0 0 0 0 0 0 0 0 0 0 0 0
0 0 0 0 0 0 0 0 0 0 0 0 0 0 0 0 0 0 0 0 0 0 0 0 0 0 0 0 0 0 0 0 0 0 0 0 0 0 0 0 0 0 0
CIN
0 0 0 0 0 0 0 0 0 0 0 0 0 0 0 0 0 0 0 0 0 0 0 0 0 0 0 0 0 0 0 0 0 0 0 0 0 0 0 0 0 0 0
0 0 0 0 0 0 0 0 0 0 0 0 0 0 0 0 0 0 0 0 0 0 0 0 0 0 0 0 0 0 0 0 0 0 0 0 0 0 0 0 0 0 0
0 0 0 0 0 0 0 0 0 0 0 0 0 0 0 0 0 0 0 0 0 0 0 0 0 0 0 0 0 0 0 0 0 0 0 0 0 0 0 0 0 0 0
0 0 0 0 0 0 0 0 0 0 0 0 0 0 0 0 0 0 0 0 0 0 0 0 0 0 0 0 0 0 0 0 0 -1 -1 -1 -1 -1 -1 -1 -1 -1 0
0 0 0 0 0 0 0 0 0 0 0 0 0 0 0 0 0 0 0 0 0 0 0 0 0 0 0 0 0 0 -2 -1 -1 -1 0 0 -1 -1 0 -1 -1 0 0
0 0 0 0 0 0 0 0 0 0 0 0 0 0 0 0 0 0 0 0 0 0 0 0 0 0 0 0 0 0 -1 0 0 0 0 0 -1 0 0 0 0 0 0
0 0 0 0 0 0 0 0 0 0 0 0 0 0 0 0 0 0 0 0 0 0 0 0 0 0 0 0 0 0 0 0 0 -1 0 0 -1 0 0 0 0 0 0
0 0 0 0 0 0 0 0 0 0 0 0 0 0 0 0 0 0 0 0 0 0 0 0 0 0 0 0 0 0 0 0 0 0 -1 0 0 0 0 0 0 0 0
0 0 0 0 0 0 0 0 0 0 0 0 0 0 0 0 0 0 0 0 0 0 0 0 0 0 0 0 0 0 0 0 0 0 -1 -2 0 0 0 0 0 0 0
0 0 0 0 0 0 0 0 0 0 0 0 0 0 0 0 0 0 0 0 0 0 0 0 0 0 0 0 0 0 0 0 0 0 0 0 0 0 0 0 0 0 0
0 0 0 0 0 0 0 0 0 0 0 0 0 0 0 0 0 0 0 0 0 0 0 0 0 0 0 -2 -3 0 0 0 0 0 0 0 0 0 0 0 0 0 0
0 0 0 0 0 0 0 0 0 0 0 0 0 0 0 0 0 0 0 0 0 0 0 0 0 0 -2 -2 -1 -1 -1 0 0 0 0 0 0 0 0 0 0 0 0
0 0 0 0 0 0 0 0 0 0 0 0 0 0 0 0 0 0 0 0 0 0 0 0 -1 -1 -1 0 0 0 0 0 0 0 0 0 0 0 0 0 0 0 0
0 0 0 0 0 0 0 0 0 0 0 0 0 0 0 0 0 0 0 0 0 0 0 0 0 0 0 0 0 0 0 0 0 0 0 0 0 0 0 0 -1 0 0
0 0 0 0 0 0 0 0 0 0 0 0 0 0 0 0 0 0 0 0 0 0 -1 0 0 0 0 0 0 0 0 0 0 0 0 0 0 0 0 0 0 0 0
0 0 0 0 0 0 0 0 0 -1 0 0 0 0 0 0 0 0 0 0 0 -1 0 0 0 0 0 0 0 0 0 0 0 0 0 0 0 0 0 0 0 0 0
0 0 0 0 0 0 0 0 0 0 0 0 0 0 0 0 0 0 0 0 0 0 0 0 0 0 0 0 0 0 0 0 0 0 0 0 0 0 0 0 0 0 0
0 0 0 0 0 0 0 0 0 0 0 0 0 0 0 0 0 0 0 0 0 0 0 0 0 0 0 0 0 0 0 0 0 0 0 0 0 0 0 0 0 0 0
0 0 0 0 0 0 0 0 0 0 0 0 0 0 0 0 0 0 0 0 0 0 0 0 0 0 0 0 0 0 0 0 0 0 0 0 0 0 0 0 0 0 0
0 0 0 0 0 0 0 0 0 0 0 0 0 0 0 0 0 0 0 0 0 0 0 0 0 0 0 0 0 0 0 0 0 0 0 0 0 0 0 0 0 0 0
0 0 0 0 0 0 0 0 0 0 0 0 0 0 0 0 0 0 0 0 0 0 0 0 0 0 0 0 0 0 0 0 0 0 0 0 0 0 0 0 0 0 0
0 0 0 0 0 0 0 0 0 0 0 0 0 0 0 0 0 0 0 0 0 0 0 0 0 0 0 0 0 0 0 0 0 0 0 0 0 0 0 0 0 0 0
0 0 0 0 0 0 0 0 0 0 0 0 0 0 0 0 0 0 0 0 0 0 0 0 0 0 0 0 0 0 0 0 0 0 0 0 0 0 0 0 0 0 0
0 0 0 0 0 0 0 0 0 0 0 0 0 0 0 0 0 0 0 0 0 0 0 0 0 0 0 0 0 0 0 0 0 0 0 0 0 0 0 0 0 0 0
0 0 0 0 0 0 0 0 0 0 0 0 0 0 0 0 0 0 0 0 0 0 0 0 0 0 0 0 0 0 0 0 0 0 0 0 0 0 0 0 0 0 0
0 0 0 0 0 0 0 0 0 0 0 0 0 0 0 0 0 0 0 0 0 0 0 0 0 0 0 0 0 0 0 0 0 0 0 0 0 0 0 0 0 0 0
Wind_Speed
17 15 14 13 12 11 10 9 10 9 9 10 10 10 11 12 13 14 16 16 18 19 20 21 23 24 25 26 26 27 28 29 34 35 35 35 38 40 41 41 42 44 45
17 16 15 14 13 12 12 11 10 10 10 11 11 12 13 14 14 16 17 18 19 20 22 23 24 25 27 28 28 30 31 33 36 41 39 41 41 41 43 46 46 46 47
18 17 16 15 14 14 13 12 11 12 12 12 13 14 15 15 16 17 18 19 20 22 23 25 27 28 30 31 32 33 34 35 37 41 44 42 44 44 46 46 47 48 48
19 18 17 16 15 14 13 12 12 13 13 14 15 15 16 17 18 19 19 21 22 23 25 26 28 30 32 33 34 36 37 39 40 43 45 46 46 45 46 50 52 51 53
20 19 17 16 15 14 13 13 13 13 14 15 15 17 18 18 19 20 21 23 24 26 26 27 28 29 31 33 35 36 38 41 42 45 47 49 49 51 52 51 55 57 55
21 20 18 16 15 14 14 13 13 14 14 15 16 17 18 20 21 21 22 24 25 26 28 28 29 31 32 34 35 37 38 41 44 46 49 51 51 52 53 52 54 57 63
22 20 19 17 16 15 14 13 14 14 15 16 17 17 19 20 20 20 21 23 25 26 27 29 31 31 34 36 38 39 40 41 43 46 50 50 51 47 52 56 57 61 65
21 20 18 17 16 15 13 13 14 14 16 17 17 18 19 20 20 20 22 24 25 27 28 29 32 34 35 39 41 43 43 43 42 43 44 48 49 52 54 57 62 64 64
21 20 18 16 16 15 15 15 15 15 16 17 18 18 19 20 21 22 24 25 27 28 29 31 34 36 37 41 44 46 47 45 44 46 49 50 52 56 57 59 63 65 69
19 18 16 15 16 15 15 15 15 15 15 16 17 19 19 21 22 24 24 26 29 31 32 33 35 36 40 43 45 47 49 49 52 53 51 54 55 57 56 53 56 62 64
16 15 14 14 14 13 13 14 14 14 15 16 17 19 20 21 23 25 27 28 32 34 36 38 37 40 44 45 46 48 50 53 54 54 57 58 56 56 54 52 51 54 59
12 12 12 12 12 12 12 13 13 14 15 17 17 19 21 22 25 27 30 32 34 37 39 40 42 44 46 48 50 50 52 53 54 57 58 59 59 58 55 53 52 51 48
10 10 10 10 10 11 11 12 13 15 16 18 20 21 24 25 27 30 32 35 37 39 40 43 47 47 50 50 50 51 52 51 54 56 57 57 55 53 53 53 51 49 49
8 9 9 9 9 10 11 12 14 15 17 20 22 25 26 28 30 32 35 38 40 42 45 46 46 48 49 50 51 50 49 51 53 54 54 53 52 52 52 50 51 52 52
6 7 7 7 8 9 11 13 15 17 19 21 23 25 29 32 33 36 40 42 44 46 50 46 50 51 53 53 52 52 51 50 51 50 51 52 52 50 49 47 48 48 49
5 7 8 8 9 11 12 14 16 17 19 21 24 27 30 32 36 40 43 46 48 50 50 52 53 53 54 54 54 53 51 50 49 49 49 48 48 48 48 46 45 45 46
5 7 8 10 11 13 15 17 20 21 21 24 28 31 33 37 41 45 47 49 49 48 50 52 53 53 53 53 52 51 52 49 47 46 45 45 44 44 45 44 43 43 42
5 7 9 10 12 14 16 19 21 25 29 31 32 36 37 42 45 47 47 47 50 48 49 51 52 51 51 51 50 49 48 46 44 43 42 42 41 41 42 41 40 40 39
7 8 10 11 14 16 18 22 25 28 32 35 38 39 40 44 45 44 45 48 50 50 49 49 49 49 49 48 46 45 43 42 41 40 39 38 38 38 38 37 36 36 35
9 10 12 14 16 19 22 26 29 32 36 38 41 42 44 45 46 47 46 47 47 48 48 48 47 46 45 44 42 41 40 38 37 36 36 35 35 34 34 33 32 30 28
10 12 14 18 21 23 26 29 32 35 38 39 41 41 44 46 47 47 47 47 47 47 47 46 45 43 41 39 38 36 35 35 34 33 33 33 32 31 29 27 23 18 12
13 16 19 22 24 27 30 31 34 36 38 40 42 42 44 44 45 46 46 46 45 44 43 42 41 38 36 35 34 32 32 31 30 29 29 29 27 25 21 14 10 10 13
17 19 22 25 27 29 31 33 35 37 39 40 41 42 43 43 44 44 44 44 43 41 39 38 36 34 31 29 28 27 26 26 24 23 23 21 15 8 9 11 13 16 17
21 23 25 27 29 31 33 35 36 37 38 39 40 41 41 42 42 42 41 40 39 37 35 33 31 29 28 26 23 22 20 17 14 7 7 11 13 14 13 14 15 17 18
23 25 27 29 31 32 34 35 36 36 37 38 39 39 39 39 39 39 37 36 34 33 31 29 27 25 23 21 19 12 5 11 13 13 12 12 14 17 17 17 18 18 19
25 27 28 30 31 32 33 34 35 36 36 37 37 37 36 36 35 34 33 32 31 29 28 26 23 20 17 13 4 10 15 16 16 14 13 15 18 19 18 20 21 20 20
Wind_Direction
225 229 231 236 241 251 257 262 270 278 281 285 291 297 302 307 311 313 315 317 318 320 322 323 322 324 324 324 325 324 322 319 315 316 318 319 319 319 318 318 317 315 314
231 233 236 239 243 250 258 263 267 272 278 283 288 293 297 301 305 308 310 313 314 315 317 318 319 320 320 321 321 319 319 318 315 314 317 317 316 318 317 316 315 314 313
234 236 239 242 245 251 257 262 266 272 277 282 286 289 294 298 302 306 309 311 313 314 315 316 317 318 317 318 318 318 318 317 316 315 315 317 317 317 316 315 314 313 313
237 240 241 243 248 255 259 263 269 274 277 282 286 290 295 298 302 305 307 309 311 313 314 315 317 316 316 317 317 317 317 316 316 315 315 316 317 318 317 316 315 314 312
239 241 244 248 253 257 261 267 272 277 281 284 288 293 296 299 301 303 305 307 310 311 314 316 317 318 318 317 317 317 317 316 316 316 315 316 317 317 316 317 314 313 312
241 244 247 249 254 258 264 269 275 282 286 288 291 294 297 302 303 304 306 308 310 312 313 316 317 319 320 319 318 318 317 316 316 316 315 315 316 317 317 317 317 316 313
244 246 247 250 255 260 266 272 278 284 290 294 297 300 302 306 308 309 310 311 312 314 316 317 318 319 320 319 319 319 318 318 316 316 315 315 317 322 320 317 315 312 310
245 246 249 252 257 263 268 275 282 288 292 297 301 304 307 311 312 314 314 314 315 316 318 319 319 319 320 320 319 318 318 318 318 319 318 318 317 318 317 315 313 311 309
249 250 252 254 260 265 271 278 285 289 295 300 304 307 310 313 315 316 316 316 317 317 319 319 319 319 320 321 319 318 317 318 319 318 316 316 316 316 316 315 313 312 311
253 256 257 260 264 268 273 279 287 292 297 302 306 311 313 315 319 320 319 318 317 318 318 319 319 320 321 321 319 319 317 318 318 317 317 317 317 316 317 316 315 313 312
258 260 264 268 268 272 277 283 287 293 298 304 309 313 316 318 320 322 323 320 318 317 318 318 319 319 319 319 320 319 317 318 318 317 317 317 317 318 318 318 318 316 314
259 261 266 271 275 278 280 287 293 297 301 306 309 313 317 319 321 322 322 321 320 318 317 318 318 318 318 319 319 318 318 318 318 317 317 317 317 318 319 319 319 317 316
262 266 270 276 281 285 286 291 297 302 305 308 311 313 315 319 320 321 321 321 320 319 319 318 317 318 318 318 318 319 319 319 318 317 317 317 319 320 320 320 320 320 319
265 271 276 279 287 296 301 303 304 307 309 311 312 314 316 318 319 321 321 321 321 320 319 319 319 319 319 319 320 320 320 319 318 318 318 319 321 321 321 323 322 323 322
273 280 287 295 298 304 314 317 318 320 318 316 317 318 317 317 319 321 321 320 320 320 319 320 319 319 318 319 319 319 320 320 320 320 320 321 321 322 323 325 324 324 323
276 285 291 299 307 313 315 319 329 328 328 328 327 325 322 321 322 321 321 321 320 320 319 318 318 318 318 319 319 320 320 320 321 321 321 322 323 324 325 326 326 326 325
292 295 302 308 312 314 315 314 312 321 326 327 327 325 325 323 322 322 321 321 321 322 319 319 318 319 319 320 320 320 320 321 322 322 323 324 325 326 326 327 328 328 329
328 325 321 322 323 324 323 322 321 319 318 319 324 324 324 324 323 323 323 324 322 322 321 321 320 320 320 320 320 321 321 322 323 324 325 326 327 328 329 330 331 332 332
346 339 337 334 332 329 327 324 322 321 321 320 321 324 326 326 326 326 327 324 323 323 323 322 322 322 321 321 322 322 323 324 325 326 327 329 330 331 332 333 335 335 336
350 344 338 334 331 327 325 324 322 322 322 322 322 323 325 325 325 326 326 326 325 324 324 323 323 323 323 324 324 325 325 326 328 329 330 331 333 335 336 338 340 342 344
345 341 338 332 329 327 326 325 324 323 323 324 324 326 326 326 326 326 326 326 326 325 325 325 325 325 325 326 327 327 328 329 330 332 333 336 337 340 343 345 348 347 325
338 332 330 329 328 326 325 326 326 325 325 326 326 328 328 329 328 328 327 327 327 327 328 327 327 328 328 329 330 330 331 332 335 338 339 342 345 349 352 347 322 304 286
333 331 329 328 328 327 327 327 327 328 327 328 328 329 330 330 330 330 330 330 330 330 331 331 331 331 332 333 334 335 336 338 342 346 348 353 357 321 302 291 285 281 279
330 329 328 328 328 328 328 328 329 329 330 330 331 331 332 332 332 332 333 333 334 335 336 337 337 336 337 339 342 343 345 349 354 353 258 263 272 277 280 280 280 278 277
329 329 330 329 329 329 330 330 331 332 332 332 333 333 334 334 335 336 338 339 340 341 342 344 344 345 347 348 349 348 306 248 241 242 249 258 267 275 277 278 279 279 278
331 331 331 331 331 331 332 332 332 333 333 333 334 335 336 337 339 341 343 345 347 349 350 351 354 356 356 358 307 249 247 247 247 248 253 259 267 275 277 280 282 280 281